Weather Roundup
Issued by NWS Springfield, MO

Home | Current Version | Previous Version | Text Only | Print | Product List | Glossary On
Versions: 1 2 3 4 5 6 7 8 9 10 11 12 13 14 15 16 17 18 19 20 21 22 23 24 25 26 27 28 29 30 31 32 33 34 35 36 37 38 39 40 41 42 43 44 45 46 47 48 49 50
000
NZUS99 KSGF 302207
HRRSGF

HOURLY WEATHER
NATIONAL WEATHER SERVICE SPRINGFIELD MO
500 PM CDT TUE SEP 30 2014

......SGF CWA......

CITY           SKY/WX    TMP DP  RH WIND       PRES   REMARKS
SPRINGFIELD    MOSUNNY   82  56  40 S9        29.86F
JOPLIN         MOSUNNY   81  59  47 S9        29.84S
WEST PLAINS    SUNNY     80  50  34 S9        29.91S
ROLLA          SUNNY     83  51  33 SE10      29.86S
OSAGE BEACH    PTSUNNY   82  59  44 S6        29.85F
BRANSON        MOSUNNY   84  55  37 S7        29.89F

......SURROUNDING SGF CWA......

CITY           SKY/WX    TMP DP  RH WIND       PRES   REMARKS
CHANUTE        MOSUNNY   82  62  50 S14       29.80S
PARSONS        SUNNY     83  63  50 S14G20    29.80F
COFFEYVILLE    MOSUNNY   84  63  49 SE15G22   29.79S
EMPORIA        MOSUNNY   81  62  52 S17G24    29.77F
GROVE OK       SUNNY     84  61  45 S9        29.84F
ROGERS AR      PTSUNNY   79  58  48 SE12      29.88S
SILOAM SPRINGS SUNNY     81  61  50 S13       29.87S
HARRISON AR    SUNNY     80  58  46 S6        29.89F
NEAR YELLVILLE MOSUNNY   84  52  32 SE7       29.88S

......KANSAS AND MISSOURI......

CITY           SKY/WX    TMP DP  RH WIND       PRES   REMARKS
KANSAS CTY INT MOSUNNY   81  58  45 S15G24    29.79F
DOWNTOWN KC    PTSUNNY   85  57  38 S12       29.79F
COLUMBIA       SUNNY     82  57  42 S3        29.85F
SEDALIA        SUNNY     84  58  40 S10       29.84F
ST JOSEPH      MOSUNNY   83  56  39 S15       29.77F
ST LOUIS       PTSUNNY   84  56  38 E7        29.88F
SPIRIT OF STL  MOSUNNY  N/A N/A N/A E7        29.85F
KIRKSVILLE     SUNNY     74  61  63 E12       29.87F
WICHITA        MOSUNNY   85  58  39 S22       29.72F
TOPEKA         PTSUNNY   84  57  39 S13G22    29.76F
OLATHE         MOSUNNY   81  57  43 S14       29.80F

......TENNESSEE......

CITY           SKY/WX    TMP DP  RH WIND       PRES   REMARKS
MEMPHIS        MOSUNNY   87  58  37 VRB5      29.86F
NASHVILLE      MOSUNNY   86  49  27 N3        29.89S

......ARKANSAS.......

CITY           SKY/WX    TMP DP  RH WIND       PRES   REMARKS
FAYETTEVILLE   SUNNY     79  59  50 S10       29.87F
FT SMITH       PTSUNNY   82  61  48 S10       29.84F
LITTLE ROCK    PTSUNNY   86  53  32 S6        29.85F

......OKLAHOMA.......

CITY           SKY/WX    TMP DP  RH WIND       PRES   REMARKS
TULSA          MOSUNNY   86  63  45 SE12      29.78S
PONCA CITY     MOSUNNY   88  59  37 VRB6G20   29.73F
MCALESTER      MOSUNNY   84  65  52 SE9       29.81F
OKLAHOMA CITY  MOSUNNY   88  60  38 S17G28    29.75F

......IOWA............

CITY           SKY/WX    TMP DP  RH WIND       PRES   REMARKS
DES MOINES     PTSUNNY   70  58  65 E10G17    29.83F

......ILLINOIS........

CITY           SKY/WX    TMP DP  RH WIND       PRES   REMARKS
QUINCY         SUNNY     74  60  61 E9        29.89F
CHICAGO        CLOUDY    55  46  71 N7        30.01R




USA.gov is the U.S. government's official web portal to all federal, state and local government web resources and services.